This is the latest recevied weather packets stored in our database for station/object W0AVQ. If no packets are shown the sender has not sent any weather packets the latest 10 day(s).
| Time | Temp. | Humidity | Pressure | Rain* | Wind** | Luminosity | Snow |
|---|---|---|---|---|---|---|---|
| 1778083746 | 12.78° C | 78% | 1017.6 hPa | 0 mm | - | 197 W/m² | - |
| 1778083442 | 12.78° C | 79% | 1017.6 hPa | 0 mm | - | 176 W/m² | - |
| 1778083141 | 12.78° C | 79% | 1017.7 hPa | 0 mm | - | 191 W/m² | - |
| 1778082837 | 12.78° C | 79% | 1017.7 hPa | 0 mm | - | 205 W/m² | - |
| 1778081720 | 12.22° C | 81% | 1017.2 hPa | 0 mm | - | 227 W/m² | - |
| 1778081417 | 11.67° C | 83% | 1017.3 hPa | 0 mm | - | 203 W/m² | - |
| 1778081114 | 12.22° C | 84% | 1017.6 hPa | 0 mm | - | 183 W/m² | - |
| 1778080812 | 11.67° C | 85% | 1017.5 hPa | 0 mm | - | 178 W/m² | - |
| 1778080509 | 11.67° C | 85% | 1017.6 hPa | 0 mm | - | 165 W/m² | - |
| 1778080207 | 11.67° C | 85% | 1017.7 hPa | 0 mm | - | 133 W/m² | - |
| 1778079903 | 11.67° C | 86% | 1017.5 hPa | 0 mm | - | 138 W/m² | - |
| 1778079600 | 11.67° C | 85% | 1017.4 hPa | 0 mm | - | 140 W/m² | - |
| 1778079296 | 11.67° C | 87% | 1017.5 hPa | 0 mm | - | 143 W/m² | - |
| 1778078994 | 11.11° C | 87% | 1017.6 hPa | 0 mm | - | 188 W/m² | - |
| 1778078690 | 11.11° C | 88% | 1017.3 hPa | 0 mm | - | 178 W/m² | - |
| 1778078388 | 10.56° C | 89% | 1017.4 hPa | 0 mm | - | 173 W/m² | - |
| 1778078085 | 10.56° C | 91% | 1017.4 hPa | 0 mm | - | 149 W/m² | - |
| 1778077784 | 10.56° C | 92% | 1017.4 hPa | 0 mm | - | 163 W/m² | - |
| 1778077481 | 10° C | 92% | 1017.3 hPa | 0 mm | - | 151 W/m² | - |
| 1778077179 | 10° C | 94% | 1017.5 hPa | 0 mm | - | 139 W/m² | - |
| 1778076877 | 9.44° C | 94% | 1017.2 hPa | 0 mm | - | 121 W/m² | - |
| 1778076575 | 9.44° C | 95% | 1017.2 hPa | 0 mm | - | 108 W/m² | - |
| 1778076272 | 8.89° C | 97% | 1016.9 hPa | 0 mm | - | 99 W/m² | - |
| 1778075968 | 8.89° C | 99% | 1016.8 hPa | 0 mm | - | 96 W/m² | - |
| 1778075666 | 8.89° C | 99% | 1016.7 hPa | 0 mm | - | 104 W/m² | - |
* Rain latest hour (hover to see other rain measurements)
** Current wind speed in m/s (hover to see current wind gust speed)